www.pogodaiklimat.ru

Погода и климат >> Архив погоды >> Россия >> Красноярский край >> Ачинск


АРХИВ ПОГОДЫ в Ачинске

Время (UTC), дата Ветер
(напр.,м/с)
 
Видим.   Явления Облачность Т
(С)
Тd
(С)
f
(%)
Тe
(С)
Тes
(С)
Комфортность P
(гПа)
Po
(гПа)
Тmin
(С)
Tmax
(С)
R
(мм)
R24
(мм)
S
(см)
12 11.06 З 2
{10}
20 км 9/6 600 м
[Cb cap Ci fib]
+20.6 +10.9 54 +23 +24 комфорт 1011.0 981.4 +21.3 0.0
15 11.06 ЮЗ 3 20 км 9/8 600 м
[Cb cap Cc]
+18.4 +12.8 70 +19 +19 тепло 1012.2 982.4
18 11.06 ЮЗ 3 20 км 6/4 600 м
[Cb cap Ac trans Ci fib]
+16.9 +12.1 73 +17 +17 тепло 1012.4 982.4
21 11.06 Ю 2 20 км 9/8 600 м
[Sc Cc]
+15.4 +11.7 79 +15 +15 тепло 1012.2 982.1
00 12.06 ЮЗ 3 20 км 9/8 600 м
[Sc Ci fib]
+17.9 +12.7 72 +18 +18 тепло 1011.3 981.4 +14.8
03 12.06 ЮЗ 5 20 км 1/1 1000 м
[Cu hum]
+21.8 +12.6 56 +24 +29 комфорт 1009.4 980.0
06 12.06 ЮЗ 5
{12}
20 км 6/6 1000 м
[Cu med, cong Cs]
+23.2 +10.9 46 +25 +29 комфорт 1007.8 978.6
09 12.06 ЮЗ 5-10
{10}
20 км 5/4 1000 м
[Cu med, cong Cs]
+25.9 +9.0 34 +26 +29 жарко 1006.0 977.0
12 12.06 ЮЗ 4
{10}
20 км 3/3 1000 м
[Cu med, cong]
+25.6 +9.4 36 +26 +27 жарко 1004.7 975.8 +26.2
15 12.06 ЮЗ 1 20 км 3/1 600 м
[Sc diur, vesp Ci fib]
+21.7 +11.4 52 +24 +24 комфорт 1005.6 976.3
18 12.06 Ю 2 20 км 3/0
[Cc]
+19.0 +10.4 57 +20 +20 тепло 1005.3 975.8
21 12.06 Ю 2 20 км 8/6 600 м
[Cu Sc Ac trans]
+17.2 +10.3 64 +18 +18 тепло 1004.5 974.7
00 13.06 ЮВ 2 20 км 6/4 600 м
[Cu hum Ci fib]
+18.5 +11.2 62 +19 +21 тепло 1004.2 974.6 +16.8
03 13.06 Ю 5 20 км 3/0
[Ci sp]
+23.9 +11.8 47 +26 +31 жарко 1002.4 973.4
06 13.06 Ю 2
{11}
20 км в посл. час ливневой дождь 8/8 600 м
[Cb cap]
+23.8 +11.7 47 +25 +29 комфорт 1002.2 973.2
09 13.06 Ю 5
{11}
20 км 6/6 600 м
[Cu med, cong]
+27.8 +7.1 27 +27 +29 жарко 1000.5 971.8
12 13.06 ЮЗ 3 20 км 6/6 600 м
[Sc diur, vesp]
+27.0 +6.9 28 +27 +27 жарко 999.5 970.8 +28.7 0.0
15 13.06 Ю 2 20 км 10/6 600 м
[Sc Ac trans Cs]
+22.5 +8.5 41 +24 +24 комфорт 1000.0 970.9
18 13.06 З 2
{10}
20 км 8/5 600 м
[Sc Ac trans Ci fib]
+19.9 +12.7 63 +22 +22 комфорт 1000.9 971.6
21 13.06 Ю 3 20 км 10/3 600 м
[Sc Cs]
+17.6 +12.7 73 +18 +18 тепло 999.5 970.0
00 14.06 Ю 3 20 км 9/8 600 м
[Sc Ac trans Ci fib]
+18.8 +11.9 64 +20 +20 тепло 999.3 969.9 +17.3
03 14.06 З 4-10
{10}
20 км 9/9 600 м
[Cb cap]
+20.4 +14.2 68 +23 +24 комфорт 1000.2 971.0
06 14.06 СЗ 2
{10}
20 км 8/8 600 м
[Cb cap Ac trans]
+19.3 +13.6 70 +21 +24 комфорт 1002.2 972.7
09 14.06 СЗ 2 20 км 9/9 600 м
[Cb cap]
+17.8 +11.9 68 +18 +19 по сезону 1003.3 973.7
12 14.06 З 2 20 км 8/6 600 м
[Cb cap Ac trans Ci fib]
+18.9 +9.6 55 +20 +21 по сезону 1003.9 974.3 +22.4
15 14.06 штиль 0 20 км 1/1 600 м
[Sc]
+16.3 +9.0 62 +16 +16 по сезону 1005.0 975.1
18 14.06 В 1 20 км 6/3 600 м
[Sc Ac trans]
+13.4 +8.9 74 +14 +14 по сезону 1005.0 974.8
21 14.06 В 1 20 км 8/8 600 м
[Sc Ac trans]
+13.2 +9.0 76 +13 +13 по сезону 1004.7 974.5
00 15.06 ЮВ 1 20 км в посл. час ливневой дождь 10/10 600 м
[Cb cap]
+13.3 +10.1 81 +13 +13 по сезону 1004.6 974.4 +12.1 0.6
03 15.06 СВ 1 10 км слаб. ливневой дождь 9/8 600 м
[Cb cap Ci fib]
+14.4 +12.5 88 +15 +17 по сезону 1003.9 973.9
06 15.06 З 2 20 км {ливн. осадки} 9/8 600 м
[Sc Ci fib]
+18.6 +14.5 77 +20 +23 по сезону 1003.9 974.4
09 15.06 СЗ 3 20 км {ливн. осадки} 10/10 600 м
[Cb cap]
+15.9 +12.8 82 +15 +15 холодно 1006.0 976.1
12 15.06 С 2 20 км {ливн. осадки} 9/6 600 м
[Cb cap Ci fib]
+17.7 +11.7 68 +18 +19 прохладно 1006.3 976.6 +19.1 4
15 15.06 С 1 20 км 9/9 600 м
[Cb cap]
+15.6 +11.4 76 +16 +16 по сезону 1007.4 977.4
18 15.06 В 1 20 км 8/8 600 м
[Sc]
+13.2 +10.1 81 +13 +13 по сезону 1006.7 976.4
21 15.06 СВ 1 20 км 10/10 600 м
[Cb cap]
+13.8 +10.6 81 +14 +14 по сезону 1005.4 975.3
00 16.06 В 1 20 км в посл. час ливневой дождь 10/10 600 м
[Cb cap]
+14.4 +11.5 83 +15 +15 тепло 1004.0 974.0 +13.0 0.0
03 16.06 ЮВ 2 10 км дым 8/6 600 м
[Cb cap Ci fib]
+21.2 +15.6 70 +24 +28 комфорт 1002.2 972.9
06 16.06 Ю 3 20 км 8/6 600 м
[Cb cap Ac cuf Ci fib]
+23.4 +16.4 65 +28 +32 душно 1000.9 971.9
09 16.06 ЮЗ 1 20 км 8/5 600 м
[Cb cap Ci]
+25.2 +15.1 54 +28 +33 жарко 999.8 971.0
12 16.06 ЮЗ 1 20 км 8/4 600 м
[Cu med, cong Ci fib]
+26.2 +13.6 46 +28 +30 жарко 999.9 971.2 +26.4
15 16.06 З 5-12
{13}
10 км слаб. ливневой дождь 10/10 600 м
[Cb cap]
+19.9 +14.0 69 +22 +22 комфорт 1002.0 972.6
18 16.06 ЮЗ 1
{12}
20 км в посл. час ливневой дождь {гроза} 10/10 600 м
[Cb cap]
+16.2 +13.7 85 +17 +17 тепло 1004.1 974.3
21 16.06 ЮЗ 3 20 км 10/10 600 м
[Cb cap]
+14.7 +11.1 79 +14 +14 по сезону 1004.7 974.7
00 17.06 ЮЗ 4
{10}
10 км слаб. дождь 9/9 600 м
[Sc]
+11.9 +8.8 81 +10 +10 прохладно 1007.6 977.2 +11.7 3
03 17.06 ЮЗ 6-11
{11}
20 км {дождь} 10/8 600 м
[Sc As trans]
+13.3 +8.5 73 +11 +11 холодно 1008.2 977.9 +11.5
06 17.06 ЮЗ 6-11
{14}
20 км в посл. час дождь 10/9 600 м
[Sc As trans]
+13.2 +8.8 75 +11 +11 очень
холодно
1009.8 979.5
09 17.06 ЮЗ 4
{13}
20 км {ливн. осадки} 9/9 600 м
[Cb cap]
+13.2 +8.7 74 +12 +12 очень
холодно
1011.6 981.2
12 17.06 ЮЗ 2
{10}
20 км {ливн. осадки} 3/3 1000 м
[Cu med, cong]
+16.5 +7.0 53 +17 +18 прохладно 1011.8 981.7 +16.5 1
15 17.06 ЮЗ 3 20 км 8/6 600 м
[Sc Ac cuf]
+14.3 +8.2 67 +13 +13 прохладно 1013.3 983.0
18 17.06 Ю 1 20 км 1/1 600 м
[Sc diur, vesp]
+10.9 +6.9 76 +11 +11 по сезону 1013.8 983.1
21 17.06 Ю 2 20 км ясно +9.8 +6.4 79 +8 +8 прохладно 1013.6 982.7
00 18.06 Ю 1 20 км 3/0
[Ci fib]
+11.8 +7.3 74 +12 +15 по сезону 1013.8 983.2 +9.7
03 18.06 Ю 3 20 км 9/0
[Cc]
+18.5 +8.3 51 +19 +26 тепло 1012.3 982.5
06 18.06 ЮВ 3 20 км 1/1 1000 м
[Cu hum]
+20.9 +4.4 34 +22 +34 комфорт 1010.1 980.5

 

Местоположение метеостанции Ачинск (Красноярский край, Россия): широта 56.28 долгота 90.52 высота над уровнем моря 257 м.

В архиве по умолчанию представлена погода в Ачинске за последнюю неделю. Архивные данные за месяц целиком и за предыдущие месяцы, начиная с января 2011 года, Вы можете получить, выбрав интересующий диапазон дат из раскрывающегося списка и нажав кнопку "Ввод!".


*Определитесь, кто Вы:
робот инопланетянин человек

Внимание! Время в таблицах - всемирное. Для получения местного времени необходимо прибавить поправку, которая равна 7 ч.

Смотрите также архив погоды в соседних городах и на ближайших метеорологических станциях:

Погода в Назарово (Красноярский край, Россия) (30 км)
Погода в Большом Улуе (Красноярский край, Россия) (41 км)
Погода в Боготоле (Красноярский край, Россия) (58 км)
Погода в Кемчуге (Красноярский край, Россия) (74 км)
Погода в Тюхтете (Красноярский край, Россия) (79 км)
Погода в Новобирилюссах (Красноярский край, Россия) (88 км)
Погода в Каче (Красноярский край, Россия) (105 км)
Погода в Шумихе (Красноярский край, Россия) (116 км)
Погода в Шарыпово (Красноярский край, Россия) (117 км)
Погода в Ужуре (Красноярский край, Россия) (117 км)

Пояснения к столбцам:

Ветер - указаны скорость ветра в м/с - средняя за 10 мин, порывы в срок и между сроками (в фигурных скобках) и направление, откуда дует ветер: С - северный, СВ - северо-восточный, В - восточный, ЮВ - юго-восточный, Ю - южный, ЮЗ - юго-западный, З - западный, СЗ - северо-западный.
Видимость - горизонтальная дальность видимости в метрах или километрах. При видимости от 1 до 10 км при отсутствии осадков обычно наблюдается дымка, при ухудшении видимости до 1 км и менее - туман. В сухую погоду видимость может ухудшаться дымом, пылью или мглою.
Явления - указаны атмосферные явления, наблюдавшиеся в срок или в последний час перед сроком; фигурными скобками обозначены явления, наблюдавшиеся между сроками (за 1-3 часа до срока); квадратными скобками обозначены град или гололедные отложения с указанием их диаметра в мм.
Облачность - указаны через наклонную черту общая и нижняя облачность в баллах и высота нижней границы облаков в метрах; квадратными скобками обозначены формы облаков: Ci - перистые, Cs - перисто-слоистые, Cc - перисто-кучевые, Ac - высококучевые, As - высокослоистые, Sc - слоисто-кучевые, Ns - слоисто-дождевые, Cu - кучевые, Cb - кучево-дождевые. Подробнее классификацию облаков см. в Атласе облаков (PDF).
T - Температура воздуха - температура, измеренная на высоте 2 м над землей.
Td - Температура точки росы - температура, при понижении до которой содержащийся в воздухе водяной пар достигнет насыщения.
f - Относительная влажность воздуха - влажноcть воздуха, измеренная на высоте 2 м над землей.
Te - Эффективная температура - температура, которую ощущает одетый по сезону человек в тени. Характеристика душности погоды. При расчете учитывается влияние влажности воздуха и скорости ветра на теплоощущения человека.
Tes - Эффективная температура на солнце - температура, которую ощущает человек, с поправкой на солнечный нагрев. Характеристика знойности погоды. Зависит от высоты солнца над горизонтом, облачности и скорости ветра. Ночью, в пасмурную погоду, а также при ветре 12 м/с и более поправка равна нулю.
P - Атмосферное давление - приведенное к уровню моря атмосферное давление.
Po - Атмосферное давление - измеренное на уровне метеостанции атмосферное давление.
Tmin - Минимальная температура - минимум температуры воздуха на высоте 2 м над землей.
Tmax - Максимальная температура - максимум температуры воздуха на высоте 2 м над землей.
R - Количество осадков - Количество выпавших осадков за период времени, мм. При наведении курсора мыши на число - период времени, за который выпало указанное количество осадков.
R24 - Количество осадков - Количество выпавших осадков за 24 часа, мм.
S - Снежный покров - Высота снежного покрова, см. При наведении курсора мыши на число - состояние снежного покрова и степень покрытия местности в баллах.